Location: Caltech
(34.1382°N, 118.1253°W)
Time: 12:51:56
(UTC-07:00)

Cosmos 2251 Rocket - Visible Passes

Search period start: 29 August 2016 00:00
Search period end: 08 September 2016 00:00
Orbit: 766 x 791 km, 74.0° (Epoch: 28 August)

Date Brightness Start Highest point End Pass type
(mag) Time Alt. Az. Time Alt. Az. Time Alt. Az.
29 Aug 5.4 03:30:48 21° NNW 03:30:48 21° NNW 03:32:48 10° N visible
30 Aug 5.8 02:57:45 19° N 02:57:45 19° N 02:59:14 10° N visible
31 Aug 6.2 02:24:40 14° NNE 02:24:40 14° NNE 02:25:27 10° NNE visible
01 Sep 6.1 03:32:04 11° NNW 03:32:04 11° NNW 03:32:22 10° NNW visible
02 Sep 6.2 02:58:56 12° N 02:58:56 12° N 02:59:20 10° N visible
03 Sep 6.4 02:25:48 11° N 02:25:48 11° N 02:25:55 10° N visible
